Flag for USA

Past Weather in Ken Malloy Harbor Regional Park, California, USA — December 2017

Now
59 °F

Sunny.


Feels Like: 58 °F
Forecast: 55 / 44 °F
Wind: 8 mph from West

Location: Los Angeles / USC Campus Downtown

Current Time: Feb 16, 2019 at 4:34:45 pm

Latest Report: Feb 16, 2019 at 3:47 pm


Visibility: 10 mi

Pressure: 30.06 "Hg

Humidity: 51%

Dew Point: 41 °F

Location of Ken Malloy Harbor Regional ParkLocation

December 2017 Weather in Ken Malloy Harbor Regional Park — Graph

°F

High & Low Weather Summary for December 2017

 TemperatureHumidityPressure
High83 °F (Dec 9, 2:47 pm)100% (Dec 30, 11:47 pm)30.36 "Hg (Dec 30, 11:47 pm)
Low39 °F (Dec 4, 4:47 am)6% (Dec 7, 12:47 pm)29.66 "Hg (Dec 16, 12:47 pm)
Average59 °F48%30.08 "Hg
* Reported Dec 1 12:47 am — Dec 31 11:47 pm, Ken Malloy Harbor Regional Park. Weather by CustomWeather, © 2019

Note: Actual official high and low records may vary slightly from our data, if they occured in-between our weather recording intervals... More about our weather records

Advertising

Ken Malloy Harbor Regional Park Weather History for December 1, 2017

Scroll right to see more
 ConditionsComfort  
Time TempWeatherWind HumidityBarometerVisibility
12:47 am
Fri, Dec 1
55 °FClear.No wind93%30.01 "Hg8 mi
1:47 am55 °FClear.No wind90%30.00 "Hg8 mi
2:47 am55 °FClear.No wind83%29.98 "Hg10 mi
3:47 am55 °FClear.3 mph83%29.97 "Hg10 mi
4:47 am53 °FClear.No wind83%29.97 "Hg10 mi
5:47 am53 °FClear.No wind80%29.98 "Hg10 mi
6:47 am53 °FSunny.No wind77%30.00 "Hg10 mi
7:47 am56 °FSunny.No wind72%30.01 "Hg10 mi
8:47 am61 °FSunny.6 mph78%30.01 "Hg10 mi
9:47 am67 °FSunny.No wind59%30.01 "Hg10 mi
10:47 am70 °FSunny.No wind46%29.99 "Hg10 mi
11:47 am73 °FSunny.3 mph40%29.97 "Hg10 mi
12:47 pm72 °FSunny.3 mph41%29.95 "Hg10 mi
1:47 pm70 °FSunny.3 mph46%29.93 "Hg10 mi
2:47 pm70 °FSunny.6 mph46%29.93 "Hg10 mi
3:47 pm70 °FSunny.3 mph46%29.93 "Hg10 mi
4:47 pm66 °FClear.No wind49%29.94 "Hg10 mi
5:47 pm63 °FClear.3 mph56%29.95 "Hg10 mi
6:47 pm61 °FClear.No wind72%29.96 "Hg10 mi
7:47 pm60 °FClear.No wind75%29.96 "Hg10 mi
8:47 pm59 °FClear.No wind78%29.98 "Hg10 mi
9:47 pm57 °FClear.No wind83%29.99 "Hg10 mi
10:47 pm57 °FClear.No wind83%29.98 "Hg10 mi
11:47 pm56 °FClear.No wind84%29.98 "Hg10 mi
Weather by CustomWeather, © 2019

See weather overview